Вернуться в каталог

STARLINK-35572

АктивенСвязьVLEO
NORAD 66117·PAYLOAD·🇺🇸 United States

Запущен Oct 22, 2025 с Vandenberg Space Force Base

Loading…

Ближайшие Пролёты (ближайшие 24 часа)

TLE

СвежийSource: CelesTrak SupGP

Эпоха: Sep 14, 2026, 23:16 UTC

1 66117C 25237D   26257.96993056  .00022319  00000+0  65928-3 0  2575
2 66117  53.1575 239.4746 0001312  93.3187 271.6786 15.34385351    18

Отслеживайте STARLINK-35572 в реальном времени с AllMySat

Download on the App Store